Vertical_Velocity
-1 -4 3 1 -0 3 -4 -8 -5 -0 30 -2 -2 0 -3 3 3 13 -8 -4 2 2 4 1 1 -3 34 -18 -23 26 -33 0 9 -3 11 5 4 -0 -1 -5 -2 8 0 -1
-4 5 0 -1 -2 0 -2 -4 -5 -4 5 16 0 -1 -2 -7 -1 18 4 3 -5 -7 6 -4 4 3 -29 -6 23 3 -3 -29 -6 -7 15 9 -2 -2 1 10 8 -0 1 1
-2 9 -2 -3 0 1 -3 -7 -1 -6 2 0 8 -5 4 3 7 -7 -2 -2 4 2 10 5 7 1 1 1 -3 3 15 4 1 11 9 -1 4 4 -2 8 9 6 -1 -2
-2 -1 -1 -4 -5 1 -2 0 3 0 -5 -4 -8 -4 -4 8 6 -12 -8 -5 6 9 14 6 11 4 -3 -1 1 -3 -17 -2 -3 1 -13 -12 -1 4 5 2 1 -2 -1 -5
15 -1 -0 -4 1 -2 -2 0 -3 -6 -11 -3 -4 -11 -4 -4 13 3 -9 1 1 10 11 -1 -4 1 0 -4 -12 -12 -8 4 7 -5 5 11 8 4 -2 -5 -3 -4 -2 -2
2 1 -4 2 -2 0 2 3 -0 -2 -3 -9 3 2 -0 -1 2 4 -4 -8 1 6 15 12 -1 -6 1 3 5 -1 -4 7 18 12 4 1 -3 -1 1 5 1 1 -5 -8
8 2 2 -1 -4 0 -2 1 -2 -4 -5 -5 3 0 -6 8 0 1 -6 5 7 -2 -1 5 9 12 11 13 18 21 14 6 2 -1 -2 -1 -0 4 2 -1 -2 -4 -5 -5
-1 -9 2 8 -2 3 -3 3 -3 -2 2 4 -3 -6 -10 -8 1 -1 -3 -2 -0 -5 -9 -6 -5 -1 4 8 4 -0 -3 -3 -4 -3 -0 2 6 2 2 1 -2 -2 -4 -6
-0 -6 3 2 1 4 9 -13 15 -1 2 -1 4 -3 -4 -8 -1 -5 1 -1 -2 -2 1 2 0 -2 -0 1 -1 -3 -2 -2 2 3 2 2 -1 -2 -5 -4 -5 -5 -4 -4
11 -11 0 -3 13 -3 -2 6 -1 0 -5 -2 0 8 4 -2 -2 2 3 6 3 3 6 4 -0 -0 -0 1 1 -2 1 -0 2 -0 2 1 -0 -4 -2 -3 -3 -2 -2 -2
9 1 10 2 -3 3 -2 1 -4 0 -4 -1 4 11 -0 -12 1 1 3 -3 3 5 3 4 -5 -0 0 -3 -3 -0 -0 -2 -0 -1 -2 -6 -6 0 -3 -5 -1 -1 -2 -2
5 15 -5 -1 6 0 1 -6 4 -5 3 -0 -3 -1 -5 -1 -6 -4 1 8 10 8 3 1 4 -2 4 1 -6 -6 -5 -2 -3 -2 -2 -3 -3 -4 -2 -2 -3 -3 -3 -2
12 -9 -1 5 5 -4 -11 -3 8 6 8 -5 -1 -3 0 5 -10 -12 -8 1 -1 -2 27 -0 1 -14 -1 -0 -1 -3 -5 -4 -4 1 -1 -3 -4 -3 -2 -0 -2 -1 -2 -1
15 0 -1 -12 18 13 1 2 -1 7 -5 4 -3 5 -0 3 -7 -6 -24 9 2 -5 4 7 -4 -1 -9 4 4 -7 -6 -2 -2 -4 -4 -3 -3 -3 -2 -2 -3 -0 -1 -1
7 -13 3 -1 -2 5 1 -8 0 -6 4 -5 5 -3 -4 6 2 -1 -12 6 -14 -7 0 -6 9 -4 1 6 2 -2 -2 -3 -2 -2 -1 -1 -2 -2 -1 -2 -1 -3 -2 -1
-5 -18 7 -9 3 6 4 -5 -5 1 -0 0 -7 -1 2 2 0 -0 -4 -16 1 -3 -4 9 2 8 5 1 -0 -4 -0 -2 -2 -4 -2 -1 -3 -3 -1 1 -0 -0 -2 -2
-8 -4 1 -17 7 17 -19 -7 2 0 4 -4 -7 9 12 8 8 0 -14 4 2 -4 6 4 4 5 1 -1 -2 -2 -1 -1 -1 -3 -2 -1 -1 -0 -1 0 -1 -2 -2 -1
1 3 4 -6 24 -32 11 5 1 11 -5 13 -7 -19 -14 -7 -3 3 -3 2 -1 -2 -4 0 2 4 1 -0 -1 -0 -1 -2 -2 -2 -3 -1 -2 -1 -1 -1 -0 0 1 -0
-10 20 -10 -7 1 4 -28 22 10 1 15 -4 -15 -3 -11 3 13 -5 13 -1 -6 0 -0 -0 0 -1 -1 -1 -2 -2 -3 -3 -3 -1 -0 -2 -2 -1 -3 -1 0 1 0 -1
5 13 1 11 -11 -34 39 -1 5 8 0 -22 -6 -13 0 5 7 6 5 -2 -2 -5 -1 -3 1 -1 -2 -3 -2 -2 -3 -2 -2 -0 -1 -2 -3 -3 -3 -2 -1 0 1 -1
-1 -4 -18 2 -5 -5 9 9 5 7 -17 2 -5 4 -3 -12 9 4 5 6 4 -5 -2 0 -1 -0 -1 -1 -1 -2 -2 -1 -0 -1 -1 -2 -3 -4 -4 -4 -2 1 -0 -0
-3 10 7 13 -7 -15 6 -2 13 5 16 -16 11 -4 12 -12 4 14 0 0 -2 -3 2 1 0 -1 -2 -1 -2 -3 -2 -3 -2 -2 -3 -2 -2 -2 -3 -3 -2 -1 0 2
-3 -4 18 13 1 33 14 -1 12 6 8 -7 3 -1 69 17 5 2 -3 -2 -3 4 3 -1 -1 -1 -1 -1 -2 -3 -1 -1 -1 -2 -2 -0 -2 -2 -1 -1 -1 -1 -1 -2
-10 5 20 3 -24 -4 -9 36 -1 7 3 2 -0 -1 0 7 -3 -5 -4 -2 0 0 2 0 -1 -0 -2 -3 -2 -1 -1 -1 -1 -3 -2 0 0 -2 -1 -1 -1 -1 -1 -1
0 7 -7 -6 -14 -13 -4 -15 -0 -3 9 -17 10 11 12 -2 -3 -2 -3 -3 -2 1 1 1 -0 -3 -3 -3 -4 -3 -0 -1 -2 -1 -1 -1 -1 -2 -1 0 1 -0 -1 0
1 -0 -5 9 3 -3 10 12 4 -10 -6 -6 12 8 -3 -5 -1 2 -2 -3 -1 -0 -1 -0 0 -4 -3 -3 -2 -3 -1 -1 -1 -2 -2 -1 -1 -2 -1 -1 1 1 -2 0
Height
5885 5888 5891 5893 5895 5898 5898 5896 5900 5906 5912 5910 5911 5913 5915 5915 5916 5919 5913 5911 5913 5913 5911 5910 5911 5903 5904 5908 5900 5891 5891 5885 5884 5886 5886 5884 5880 5877 5871 5866 5860 5853 5847 5840
5880 5886 5889 5890 5892 5895 5895 5896 5899 5903 5907 5910 5910 5910 5912 5913 5915 5916 5908 5909 5908 5910 5910 5907 5906 5905 5901 5901 5899 5891 5892 5885 5884 5880 5879 5878 5874 5868 5862 5856 5850 5843 5838 5832
5877 5884 5883 5885 5890 5892 5892 5893 5897 5900 5902 5902 5905 5905 5909 5911 5913 5904 5901 5902 5907 5908 5909 5908 5905 5901 5901 5898 5894 5888 5884 5882 5881 5876 5870 5866 5862 5857 5851 5847 5842 5835 5829 5823
5874 5876 5877 5880 5884 5887 5889 5892 5895 5898 5899 5897 5899 5898 5902 5906 5909 5901 5895 5895 5900 5905 5906 5905 5903 5899 5894 5892 5887 5884 5881 5876 5870 5867 5865 5860 5854 5848 5843 5839 5834 5828 5823 5817
5873 5872 5873 5876 5879 5882 5885 5888 5889 5891 5892 5894 5895 5893 5895 5900 5904 5898 5894 5891 5894 5899 5898 5895 5892 5888 5884 5880 5876 5873 5872 5870 5867 5863 5857 5851 5846 5841 5837 5833 5829 5821 5816 5809
5865 5867 5868 5873 5875 5878 5881 5883 5883 5886 5887 5886 5894 5892 5891 5895 5895 5893 5894 5891 5891 5891 5893 5887 5881 5879 5874 5871 5870 5869 5867 5863 5858 5854 5848 5844 5842 5839 5833 5827 5821 5814 5806 5798
5862 5863 5865 5867 5870 5872 5874 5878 5878 5881 5881 5886 5887 5885 5886 5888 5887 5888 5890 5890 5891 5888 5881 5880 5878 5876 5871 5866 5864 5863 5860 5857 5852 5848 5845 5842 5838 5834 5828 5821 5813 5805 5796 5787
5853 5856 5861 5864 5864 5868 5870 5872 5874 5875 5879 5882 5881 5878 5877 5879 5882 5883 5883 5886 5886 5885 5882 5878 5876 5874 5873 5871 5866 5862 5858 5853 5849 5846 5842 5838 5833 5828 5822 5814 5806 5798 5789 5780
5847 5850 5855 5857 5859 5862 5867 5864 5872 5870 5874 5873 5877 5876 5873 5873 5877 5880 5880 5879 5880 5879 5877 5875 5874 5872 5870 5867 5862 5858 5853 5849 5845 5841 5837 5833 5827 5821 5814 5806 5798 5789 5781 5772
5841 5840 5846 5850 5857 5855 5857 5863 5864 5865 5867 5868 5872 5872 5869 5869 5871 5874 5875 5875 5874 5873 5873 5871 5868 5867 5864 5861 5856 5851 5847 5843 5839 5836 5832 5827 5821 5814 5807 5798 5790 5781 5773 5765
5834 5834 5842 5843 5844 5849 5851 5854 5855 5859 5862 5863 5868 5869 5865 5862 5864 5867 5867 5866 5867 5867 5867 5865 5864 5862 5858 5853 5848 5844 5840 5836 5833 5830 5825 5819 5812 5805 5797 5789 5781 5773 5765 5757
5827 5829 5830 5834 5840 5842 5846 5847 5851 5850 5855 5857 5859 5861 5859 5861 5856 5856 5858 5862 5860 5860 5862 5859 5858 5855 5852 5846 5840 5837 5834 5830 5826 5822 5817 5810 5804 5796 5789 5780 5772 5764 5757 5750
5821 5820 5822 5828 5832 5832 5835 5840 5844 5846 5850 5850 5853 5856 5856 5853 5850 5849 5848 5846 5844 5849 5849 5852 5853 5849 5843 5838 5834 5830 5825 5822 5817 5813 5808 5802 5795 5787 5780 5772 5764 5756 5749 5743
5813 5812 5813 5817 5827 5831 5833 5834 5838 5840 5839 5843 5845 5849 5852 5849 5844 5845 5841 5837 5840 5841 5832 5842 5844 5838 5834 5829 5826 5821 5816 5813 5809 5805 5800 5794 5786 5779 5771 5764 5756 5749 5743 5736
5801 5801 5807 5810 5818 5824 5824 5826 5831 5831 5834 5835 5841 5841 5844 5844 5841 5840 5836 5831 5831 5835 5834 5835 5835 5831 5825 5822 5819 5814 5810 5806 5802 5797 5792 5786 5778 5771 5763 5756 5749 5742 5736 5730
5788 5792 5798 5802 5808 5814 5817 5818 5821 5824 5828 5829 5831 5834 5835 5837 5836 5835 5834 5830 5824 5829 5830 5832 5827 5822 5819 5816 5812 5807 5804 5800 5795 5790 5784 5777 5770 5763 5756 5748 5741 5735 5729 5724
5775 5781 5787 5791 5799 5804 5805 5809 5815 5818 5820 5821 5823 5827 5829 5829 5828 5826 5825 5825 5825 5823 5821 5819 5817 5816 5813 5809 5805 5801 5798 5793 5788 5782 5775 5769 5763 5755 5748 5741 5734 5727 5722 5717
5766 5771 5775 5780 5789 5787 5796 5804 5808 5810 5812 5815 5812 5813 5815 5818 5818 5818 5819 5822 5820 5817 5813 5813 5812 5810 5806 5802 5799 5795 5791 5786 5780 5774 5768 5762 5755 5748 5740 5733 5726 5720 5715 5710
5758 5765 5765 5768 5772 5779 5785 5797 5802 5802 5805 5802 5801 5807 5810 5809 5813 5813 5814 5813 5813 5812 5809 5808 5806 5803 5799 5796 5792 5788 5784 5779 5773 5767 5761 5755 5747 5740 5733 5725 5717 5712 5708 5704
5747 5752 5756 5759 5762 5764 5778 5787 5791 5793 5795 5795 5794 5796 5800 5804 5806 5807 5809 5808 5806 5805 5803 5801 5800 5797 5794 5790 5787 5782 5777 5772 5766 5761 5755 5748 5741 5734 5727 5718 5710 5706 5703 5698
5732 5740 5743 5749 5751 5759 5767 5776 5779 5782 5784 5785 5789 5788 5788 5795 5798 5801 5802 5801 5800 5799 5797 5796 5794 5791 5788 5784 5780 5775 5770 5765 5760 5754 5749 5743 5736 5730 5722 5715 5709 5704 5699 5694
5721 5728 5734 5739 5742 5750 5757 5765 5771 5772 5773 5778 5781 5780 5775 5786 5792 5796 5795 5794 5792 5791 5791 5790 5787 5785 5781 5777 5773 5768 5763 5758 5754 5749 5743 5738 5732 5726 5720 5714 5708 5702 5696 5690
5711 5718 5725 5729 5736 5741 5746 5752 5759 5761 5767 5769 5775 5779 5773 5776 5782 5783 5785 5785 5784 5785 5785 5783 5781 5778 5775 5770 5765 5761 5756 5752 5748 5743 5738 5733 5727 5722 5716 5711 5705 5699 5692 5686
5701 5708 5713 5717 5721 5733 5736 5742 5747 5752 5758 5762 5766 5769 5771 5773 5774 5776 5778 5777 5777 5777 5778 5776 5774 5771 5767 5763 5759 5754 5750 5746 5742 5738 5732 5727 5722 5717 5712 5706 5701 5695 5688 5681
5690 5695 5704 5708 5713 5723 5728 5734 5738 5746 5751 5754 5760 5763 5762 5762 5766 5769 5769 5770 5771 5771 5771 5770 5767 5764 5760 5756 5752 5748 5745 5740 5736 5731 5726 5720 5716 5711 5707 5702 5696 5690 5684 5677
5682 5690 5698 5701 5708 5714 5721 5724 5727 5733 5736 5740 5750 5755 5757 5759 5760 5760 5762 5763 5765 5765 5764 5762 5760 5757 5753 5749 5745 5742 5738 5735 5730 5724 5720 5715 5711 5706 5701 5696 5690 5685 5678 5671